contact:dominique.lefevre@mio.osupytheas.fr, maurice.libes@osupytheas.fr, didier.mallarino@osupytheas.fr
Project:EMSO http://www.emso-fr.org/EMSO-France
Depth: 2436.0 m
Title:EMSO Ligure Ouest : Data MII capteur AQUADOPP
Date,Latitude,Longitude,X_East,Y_North,Z_Up,Amplitude_X,Amplitude_Y,Amplitude_Z,Batterie,SoundSpeed,Heading,Pitch,Roll,Pressure,TIS,Speed,Direction
, degrees North, degrees East, m.s-1, m.s-1,m.s-1, 1, 1, 1, Volt, m.s-1, degree, degree, degree, dbar, degree_C, m.s-1, degree
2021-06-18T00:04:03,42.805,6.029,0.01,-0.036,-0.025,104.0,102.0,102.0,13.4,1505.2,326.9,-0.7,1.8,2470.744,13.28,0.037,164.5
2021-06-18T00:07:03,42.805,6.029,0.008,-0.033,-0.011,103.0,104.0,102.0,13.3,1505.2,327.8,-0.7,1.8,2470.716,13.28,0.033,166.4
2021-06-18T00:10:03,42.805,6.029,0.015,-0.012,0.015,104.0,103.0,102.0,13.4,1505.2,327.4,-0.8,1.9,2470.697,13.28,0.019,128.7
2021-06-18T00:13:03,42.805,6.029,0.035,-0.058,-0.014,104.0,103.0,101.0,13.4,1505.2,324.5,-0.8,1.8,2470.729,13.28,0.067,148.9
2021-06-18T00:16:03,42.805,6.029,0.017,-0.04,-0.027,104.0,103.0,102.0,13.4,1505.2,325.9,-0.8,1.8,2470.696,13.28,0.043,157.0
2021-06-18T00:19:03,42.805,6.029,0.02,-0.04,-0.013,103.0,103.0,102.0,13.4,1505.2,324.8,-0.8,1.8,2470.747,13.28,0.044,153.4
2021-06-18T00:22:03,42.805,6.029,0.032,-0.028,-0.024,104.0,102.0,102.0,13.4,1505.2,324.5,-0.8,1.8,2470.71,13.28,0.042,131.2
2021-06-18T00:25:03,42.805,6.029,0.02,-0.031,0.0,104.0,102.0,101.0,13.4,1505.2,329.7,-0.8,1.8,2470.705,13.28,0.036,147.2
2021-06-18T00:28:03,42.805,6.029,0.012,-0.052,-0.012,104.0,104.0,101.0,13.3,1505.2,329.9,-0.8,1.8,2470.69,13.28,0.053,167.0
2021-06-18T00:31:03,42.805,6.029,0.008,-0.031,-0.034,103.0,103.0,102.0,13.4,1505.2,326.2,-0.7,1.8,2470.716,13.28,0.032,165.5
2021-06-18T00:34:03,42.805,6.029,0.02,-0.021,0.005,103.0,103.0,102.0,13.4,1505.2,326.8,-0.7,1.8,2470.731,13.28,0.028,136.4
2021-06-18T00:37:03,42.805,6.029,0.004,-0.023,0.035,102.0,103.0,102.0,13.4,1505.2,325.8,-0.8,1.8,2470.712,13.28,0.023,170.1
2021-06-18T00:40:03,42.805,6.029,-0.011,-0.032,-0.017,105.0,105.0,101.0,13.3,1505.2,325.6,-0.8,1.8,2470.733,13.28,0.033,199.0
2021-06-18T00:43:03,42.805,6.029,0.017,-0.037,0.004,103.0,103.0,101.0,13.4,1505.2,328.4,-0.7,1.8,2470.725,13.28,0.04,155.3
2021-06-18T00:46:03,42.805,6.029,-0.007,-0.019,0.008,102.0,102.0,103.0,13.4,1505.2,327.7,-0.8,1.8,2470.699,13.28,0.02,200.2
2021-06-18T00:49:03,42.805,6.029,-0.001,-0.043,0.005,104.0,102.0,101.0,13.4,1505.2,326.5,-0.8,1.8,2470.728,13.28,0.043,181.3
2021-06-18T00:52:03,42.805,6.029,0.014,-0.02,0.0,103.0,103.0,102.0,13.4,1505.2,327.6,-0.8,1.8,2470.69,13.28,0.024,145.0
2021-06-18T00:55:03,42.805,6.029,0.017,-0.019,0.015,105.0,104.0,101.0,13.3,1505.2,326.3,-0.7,1.8,2470.681,13.28,0.025,138.2
2021-06-18T00:58:03,42.805,6.029,0.029,-0.042,0.019,103.0,103.0,102.0,13.4,1505.2,325.4,-0.7,1.8,2470.731,13.28,0.051,145.4
2021-06-18T01:04:03,42.805,6.029,0.009,-0.026,-0.013,104.0,103.0,101.0,13.4,1505.2,324.4,-0.8,1.8,2470.735,13.28,0.027,160.9
2021-06-18T01:07:03,42.805,6.029,0.013,0.004,-0.004,103.0,103.0,102.0,13.4,1505.2,326.5,-0.8,1.8,2470.715,13.28,0.013,72.9
2021-06-18T01:10:03,42.805,6.029,0.018,-0.018,0.002,105.0,102.0,102.0,13.4,1505.2,327.3,-0.7,1.8,2470.734,13.28,0.025,135.0
2021-06-18T01:13:03,42.805,6.029,0.026,-0.02,0.007,103.0,103.0,102.0,13.4,1505.2,326.0,-0.7,1.8,2470.733,13.28,0.032,127.6
2021-06-18T01:16:03,42.805,6.029,0.037,-0.034,0.022,103.0,104.0,102.0,13.4,1505.2,330.2,-0.7,1.8,2470.694,13.28,0.05,132.6
2021-06-18T01:19:03,42.805,6.029,0.007,-0.031,-0.001,102.0,103.0,102.0,13.3,1505.2,329.7,-0.8,1.8,2470.741,13.28,0.031,167.3
2021-06-18T01:22:03,42.805,6.029,0.027,-0.028,0.01,103.0,104.0,101.0,13.4,1505.2,328.5,-0.7,1.8,2470.759,13.28,0.038,136.0
2021-06-18T01:25:03,42.805,6.029,-0.003,-0.031,-0.023,102.0,104.0,102.0,13.4,1505.2,328.7,-0.8,1.8,2470.721,13.28,0.031,185.5
2021-06-18T01:28:03,42.805,6.029,-0.006,-0.034,-0.012,102.0,103.0,102.0,13.4,1505.2,327.9,-0.7,1.8,2470.698,13.28,0.034,190.0
2021-06-18T01:31:03,42.805,6.029,0.005,-0.03,-0.007,104.0,104.0,101.0,13.4,1505.2,324.3,-0.8,1.8,2470.689,13.28,0.03,170.5
2021-06-18T01:34:03,42.805,6.029,0.008,-0.04,-0.023,103.0,103.0,102.0,13.4,1505.2,330.1,-0.7,1.8,2470.708,13.28,0.04,168.7
2021-06-18T01:37:03,42.805,6.029,0.025,-0.023,-0.01,102.0,104.0,102.0,13.4,1505.2,326.9,-0.7,1.9,2470.732,13.28,0.033,132.6
2021-06-18T01:40:03,42.805,6.029,0.022,-0.022,-0.001,105.0,102.0,102.0,13.4,1505.2,327.6,-0.8,1.8,2470.698,13.28,0.031,135.0
2021-06-18T01:43:03,42.805,6.029,0.016,-0.028,0.01,103.0,102.0,102.0,13.4,1505.2,327.0,-0.8,1.8,2470.664,13.28,0.032,150.3
2021-06-18T01:46:03,42.805,6.029,0.03,-0.032,0.013,104.0,104.0,102.0,13.4,1505.2,325.8,-0.7,1.8,2470.662,13.28,0.043,136.9
2021-06-18T01:49:03,42.805,6.029,0.024,-0.033,-0.02,104.0,103.0,100.0,13.4,1505.2,326.0,-0.7,1.8,2470.659,13.28,0.04,144.0
2021-06-18T01:52:03,42.805,6.029,0.022,-0.015,-0.009,105.0,101.0,102.0,13.4,1505.2,325.4,-0.7,1.8,2470.704,13.28,0.026,124.3
2021-06-18T01:55:03,42.805,6.029,-0.003,-0.036,-0.024,104.0,103.0,102.0,13.4,1505.2,327.4,-0.8,1.8,2470.727,13.28,0.036,184.8
2021-06-18T01:58:03,42.805,6.029,0.011,-0.042,-0.026,103.0,104.0,101.0,13.3,1505.2,329.2,-0.7,1.8,2470.697,13.28,0.043,165.3
2021-06-18T02:04:03,42.805,6.029,0.015,-0.039,-0.011,102.0,103.0,102.0,13.3,1505.2,326.8,-0.8,1.8,2470.757,13.28,0.041,159.0
2021-06-18T02:07:03,42.805,6.029,0.033,-0.031,-0.002,103.0,103.0,102.0,13.4,1505.2,328.2,-0.8,1.8,2470.687,13.28,0.045,133.2
2021-06-18T02:10:03,42.805,6.029,0.017,-0.024,-0.009,104.0,104.0,102.0,13.4,1505.2,326.0,-0.7,1.8,2470.696,13.28,0.029,144.7
2021-06-18T02:13:03,42.805,6.029,0.016,-0.03,-0.04,104.0,103.0,101.0,13.4,1505.2,329.3,-0.8,1.8,2470.687,13.28,0.034,151.9
2021-06-18T02:16:03,42.805,6.029,0.011,-0.046,0.008,103.0,103.0,101.0,13.3,1505.2,327.0,-0.8,1.8,2470.676,13.28,0.047,166.6
2021-06-18T02:19:03,42.805,6.029,0.006,-0.017,-0.001,102.0,103.0,102.0,13.4,1505.2,327.3,-0.7,1.8,2470.669,13.28,0.018,160.6
2021-06-18T02:22:03,42.805,6.029,0.003,-0.018,-0.018,103.0,102.0,102.0,13.3,1505.2,328.0,-0.8,1.8,2470.668,13.28,0.018,170.5
2021-06-18T02:25:03,42.805,6.029,0.017,-0.034,-0.018,103.0,103.0,102.0,13.4,1505.2,326.0,-0.8,1.8,2470.697,13.28,0.038,153.4
2021-06-18T02:28:03,42.805,6.029,0.001,-0.014,0.003,104.0,103.0,101.0,13.4,1505.2,325.8,-0.7,1.8,2470.665,13.28,0.014,175.9
2021-06-18T02:31:03,42.805,6.029,0.009,-0.035,0.0,103.0,104.0,102.0,13.4,1505.2,328.1,-0.8,1.8,2470.704,13.28,0.036,165.6
2021-06-18T02:34:03,42.805,6.029,0.008,-0.035,-0.028,103.0,102.0,102.0,13.4,1505.2,328.8,-0.8,1.9,2470.651,13.28,0.035,167.1
2021-06-18T02:37:03,42.805,6.029,0.012,-0.032,-0.009,103.0,103.0,101.0,13.4,1505.2,327.8,-0.8,1.8,2470.669,13.28,0.034,159.4
2021-06-18T02:40:03,42.805,6.029,0.022,-0.033,-0.007,103.0,103.0,101.0,13.4,1505.2,328.7,-0.8,1.8,2470.678,13.28,0.039,146.3
2021-06-18T02:43:03,42.805,6.029,0.005,-0.034,0.004,104.0,103.0,102.0,13.4,1505.2,327.1,-0.8,1.8,2470.696,13.28,0.034,171.6
2021-06-18T02:46:03,42.805,6.029,-0.001,-0.03,-0.028,104.0,103.0,101.0,13.3,1505.2,326.1,-0.7,1.8,2470.705,13.28,0.03,181.9
2021-06-18T02:49:03,42.805,6.029,0.025,-0.006,-0.009,104.0,103.0,102.0,13.3,1505.2,324.6,-0.8,1.8,2470.676,13.28,0.025,103.5
2021-06-18T02:52:03,42.805,6.029,0.011,-0.02,0.038,103.0,103.0,101.0,13.3,1505.2,329.2,-0.8,1.8,2470.645,13.28,0.022,151.2
2021-06-18T02:55:03,42.805,6.029,0.003,-0.018,-0.02,104.0,103.0,102.0,13.3,1505.2,327.0,-0.8,1.8,2470.646,13.28,0.018,170.5
2021-06-18T02:58:03,42.805,6.029,0.008,-0.022,-0.028,104.0,103.0,101.0,13.4,1505.2,328.3,-0.8,1.8,2470.645,13.28,0.023,160.0
2021-06-18T03:04:03,42.805,6.029,0.025,-0.024,-0.009,103.0,104.0,102.0,13.3,1505.2,328.0,-0.7,1.8,2470.7,13.28,0.034,133.8
2021-06-18T03:07:03,42.805,6.029,0.013,-0.027,0.0,104.0,103.0,101.0,13.4,1505.2,327.6,-0.8,1.8,2470.662,13.28,0.029,154.3
2021-06-18T03:10:03,42.805,6.029,0.001,-0.036,-0.037,103.0,104.0,102.0,13.3,1505.2,327.0,-0.7,1.8,2470.646,13.28,0.036,178.4
2021-06-18T03:13:03,42.805,6.029,0.01,-0.02,0.004,104.0,102.0,101.0,13.4,1505.2,329.7,-0.7,1.8,2470.677,13.28,0.022,153.4
2021-06-18T03:16:03,42.805,6.029,0.018,-0.017,0.014,103.0,104.0,101.0,13.4,1505.2,326.5,-0.7,1.8,2470.669,13.28,0.024,133.4
2021-06-18T03:19:03,42.805,6.029,0.008,-0.032,-0.016,104.0,102.0,101.0,13.4,1505.2,328.3,-0.8,1.8,2470.697,13.28,0.032,166.0
2021-06-18T03:22:03,42.805,6.029,-0.004,-0.017,0.001,102.0,102.0,101.0,13.3,1505.2,328.4,-0.7,1.8,2470.61,13.28,0.017,193.2
2021-06-18T03:25:03,42.805,6.029,0.0,-0.02,-0.018,103.0,102.0,101.0,13.3,1505.2,328.6,-0.7,1.8,2470.64,13.28,0.02,180.0
2021-06-18T03:28:03,42.805,6.029,0.001,-0.029,0.021,103.0,103.0,101.0,13.3,1505.2,328.1,-0.8,1.8,2470.667,13.28,0.029,178.0
2021-06-18T03:31:03,42.805,6.029,0.042,-0.022,0.02,102.0,102.0,102.0,13.4,1505.2,325.1,-0.8,1.8,2470.65,13.28,0.047,117.6
2021-06-18T03:34:03,42.805,6.029,0.034,-0.026,0.011,101.0,104.0,102.0,13.4,1505.2,329.1,-0.7,1.8,2470.716,13.28,0.042,127.4
2021-06-18T03:37:03,42.805,6.029,0.007,-0.003,0.006,103.0,104.0,102.0,13.4,1505.2,329.5,-0.7,1.8,2470.619,13.28,0.007,113.2
2021-06-18T03:40:03,42.805,6.029,0.021,-0.014,0.007,104.0,103.0,102.0,13.4,1505.2,326.7,-0.7,1.8,2470.614,13.28,0.025,123.7
2021-06-18T03:43:03,42.805,6.029,0.024,-0.027,0.007,105.0,103.0,101.0,13.4,1505.2,324.8,-0.8,1.8,2470.611,13.28,0.036,138.4
2021-06-18T03:46:03,42.805,6.029,0.02,-0.024,0.001,102.0,104.0,102.0,13.3,1505.2,324.7,-0.7,1.8,2470.651,13.28,0.031,140.2
2021-06-18T03:49:03,42.805,6.029,0.027,-0.031,-0.024,103.0,104.0,101.0,13.4,1505.2,325.3,-0.8,1.8,2470.658,13.28,0.041,138.9
2021-06-18T03:52:03,42.805,6.029,0.049,-0.032,-0.013,103.0,103.0,102.0,13.4,1505.2,325.4,-0.8,1.9,2470.646,13.28,0.058,123.2
2021-06-18T03:55:03,42.805,6.029,0.015,-0.022,-0.027,103.0,104.0,102.0,13.4,1505.2,324.6,-0.7,1.8,2470.605,13.28,0.026,145.7
2021-06-18T03:58:03,42.805,6.029,-0.008,-0.032,0.004,103.0,104.0,102.0,13.4,1505.2,325.1,-0.8,1.8,2470.638,13.28,0.032,194.0
2021-06-18T04:04:03,42.805,6.029,0.037,-0.01,-0.016,103.0,103.0,102.0,13.4,1505.2,326.8,-0.8,1.8,2470.657,13.28,0.038,105.1
2021-06-18T04:07:03,42.805,6.029,0.004,-0.023,-0.02,104.0,105.0,101.0,13.4,1505.2,328.5,-0.7,1.8,2470.614,13.28,0.023,170.1
2021-06-18T04:10:03,42.805,6.029,0.03,-0.014,0.018,105.0,103.0,101.0,13.4,1505.2,328.5,-0.7,1.8,2470.602,13.28,0.033,115.0
2021-06-18T04:13:03,42.805,6.029,0.016,-0.04,-0.036,104.0,103.0,101.0,13.3,1505.2,325.4,-0.8,1.8,2470.609,13.28,0.043,158.2
2021-06-18T04:16:03,42.805,6.029,0.034,-0.033,-0.022,102.0,104.0,101.0,13.4,1505.2,326.6,-0.8,1.9,2470.624,13.28,0.047,134.1
2021-06-18T04:19:03,42.805,6.029,0.001,-0.017,-0.003,102.0,103.0,103.0,13.4,1505.2,328.1,-0.8,1.9,2470.654,13.28,0.017,176.6
2021-06-18T04:22:03,42.805,6.029,-0.009,-0.023,0.004,103.0,103.0,103.0,13.4,1505.2,326.3,-0.7,1.8,2470.679,13.28,0.024,201.4
2021-06-18T04:25:03,42.805,6.029,0.015,-0.024,-0.026,103.0,104.0,102.0,13.4,1505.2,329.7,-0.8,1.8,2470.632,13.28,0.028,148.0
2021-06-18T04:28:03,42.805,6.029,0.001,-0.042,-0.03,104.0,103.0,102.0,13.4,1505.2,326.3,-0.8,1.8,2470.622,13.28,0.042,178.6
2021-06-18T04:31:03,42.805,6.029,0.025,-0.024,0.034,104.0,103.0,104.0,13.3,1505.2,329.3,-0.8,1.8,2470.618,13.28,0.034,133.8
2021-06-18T04:34:03,42.805,6.029,0.032,-0.041,0.015,102.0,105.0,102.0,13.3,1505.2,327.6,-0.8,1.8,2470.606,13.28,0.052,142.0
2021-06-18T04:37:03,42.805,6.029,0.01,-0.015,0.016,104.0,104.0,101.0,13.4,1505.2,329.6,-0.8,1.8,2470.641,13.28,0.018,146.3
2021-06-18T04:40:03,42.805,6.029,0.02,-0.03,-0.004,103.0,103.0,102.0,13.3,1505.2,326.1,-0.7,1.8,2470.62,13.28,0.036,146.3
2021-06-18T04:43:03,42.805,6.029,0.035,-0.037,0.001,103.0,104.0,102.0,13.4,1505.2,325.9,-0.8,1.8,2470.63,13.28,0.05,136.6
2021-06-18T04:46:03,42.805,6.029,0.022,-0.018,-0.008,103.0,103.0,102.0,13.3,1505.2,327.4,-0.8,1.8,2470.608,13.28,0.028,129.3
2021-06-18T04:49:03,42.805,6.029,0.01,-0.046,-0.048,102.0,102.0,102.0,13.4,1505.2,326.4,-0.7,1.8,2470.586,13.28,0.047,167.7
2021-06-18T04:52:03,42.805,6.029,0.033,-0.032,0.01,103.0,103.0,102.0,13.3,1505.2,328.1,-0.7,1.8,2470.602,13.28,0.045,134.1
2021-06-18T04:55:03,42.805,6.029,0.025,-0.015,-0.006,103.0,104.0,102.0,13.4,1505.2,329.3,-0.8,1.8,2470.618,13.28,0.029,121.0
2021-06-18T04:58:03,42.805,6.029,0.02,-0.021,0.005,103.0,103.0,102.0,13.4,1505.2,329.1,-0.8,1.9,2470.623,13.28,0.028,136.4
2021-06-18T05:04:03,42.805,6.029,0.018,-0.017,0.017,104.0,102.0,102.0,13.3,1505.2,330.0,-0.8,1.8,2470.624,13.28,0.024,133.4
2021-06-18T05:07:03,42.805,6.029,0.03,-0.037,0.003,103.0,102.0,101.0,13.3,1505.2,327.4,-0.8,1.8,2470.612,13.28,0.047,141.0
2021-06-18T05:10:03,42.805,6.029,0.012,-0.032,-0.007,104.0,102.0,101.0,13.4,1505.2,328.7,-0.8,1.8,2470.614,13.28,0.034,159.4
2021-06-18T05:13:03,42.805,6.029,0.022,-0.036,0.031,104.0,103.0,102.0,13.4,1505.2,326.8,-0.7,1.8,2470.61,13.28,0.042,148.6
2021-06-18T05:16:03,42.805,6.029,0.018,-0.012,-0.005,103.0,103.0,102.0,13.4,1505.2,328.3,-0.7,1.8,2470.608,13.28,0.021,123.7
2021-06-18T05:19:03,42.805,6.029,0.045,-0.029,0.006,103.0,102.0,102.0,13.4,1505.2,325.6,-0.8,1.8,2470.617,13.28,0.053,122.8
2021-06-18T05:22:03,42.805,6.029,0.026,-0.02,-0.02,103.0,103.0,101.0,13.4,1505.2,329.3,-0.7,1.8,2470.605,13.28,0.032,127.6
2021-06-18T05:25:03,42.805,6.029,0.0,-0.021,-0.02,104.0,104.0,101.0,13.4,1505.2,328.5,-0.7,1.8,2470.597,13.28,0.021,180.0
2021-06-18T05:28:03,42.805,6.029,0.026,-0.026,0.015,103.0,103.0,102.0,13.3,1505.2,328.2,-0.8,1.8,2470.6,13.28,0.036,135.0
2021-06-18T05:31:03,42.805,6.029,0.013,-0.017,0.007,103.0,103.0,102.0,13.3,1505.2,325.8,-0.7,1.8,2470.566,13.28,0.021,142.6
2021-06-18T05:34:03,42.805,6.029,0.017,-0.02,0.004,105.0,103.0,102.0,13.4,1505.2,327.9,-0.8,1.8,2470.584,13.28,0.026,139.6
2021-06-18T05:37:03,42.805,6.029,0.006,-0.019,-0.012,103.0,103.0,102.0,13.4,1505.2,328.2,-0.8,1.8,2470.619,13.28,0.019,162.5
2021-06-18T05:40:03,42.805,6.029,0.042,-0.007,0.013,104.0,103.0,102.0,13.3,1505.2,325.6,-0.7,1.8,2470.584,13.28,0.042,99.5
2021-06-18T05:43:03,42.805,6.029,0.029,-0.033,-0.012,103.0,103.0,102.0,13.4,1505.2,325.9,-0.8,1.8,2470.596,13.28,0.043,138.7
2021-06-18T05:46:03,42.805,6.029,0.023,-0.02,0.007,104.0,103.0,101.0,13.4,1505.2,327.5,-0.8,1.8,2470.626,13.28,0.03,131.0
2021-06-18T05:49:03,42.805,6.029,0.021,-0.019,-0.006,103.0,102.0,102.0,13.4,1505.2,324.8,-0.8,1.8,2470.586,13.28,0.028,132.1
2021-06-18T05:52:03,42.805,6.029,0.019,-0.035,-0.01,102.0,104.0,103.0,13.3,1505.2,325.9,-0.7,1.8,2470.594,13.28,0.039,151.5
2021-06-18T05:55:03,42.805,6.029,0.012,-0.024,0.008,104.0,103.0,101.0,13.4,1505.2,325.2,-0.8,1.8,2470.58,13.28,0.026,153.4
2021-06-18T05:58:03,42.805,6.029,0.029,-0.021,-0.003,104.0,102.0,101.0,13.4,1505.2,325.5,-0.7,1.8,2470.548,13.28,0.035,125.9
2021-06-18T06:04:03,42.805,6.029,0.037,-0.02,0.005,103.0,103.0,102.0,13.4,1505.2,327.8,-0.8,1.8,2470.59,13.28,0.042,118.4
2021-06-18T06:07:03,42.805,6.029,0.038,-0.023,0.013,105.0,104.0,101.0,13.4,1505.2,325.8,-0.7,1.8,2470.586,13.28,0.044,121.2
2021-06-18T06:10:03,42.805,6.029,0.034,-0.017,0.025,103.0,104.0,102.0,13.4,1505.2,327.8,-0.7,1.8,2470.611,13.28,0.038,116.6
2021-06-18T06:13:03,42.805,6.029,0.035,-0.032,-0.003,104.0,104.0,101.0,13.4,1505.2,326.4,-0.8,1.8,2470.578,13.28,0.047,132.4
2021-06-18T06:16:03,42.805,6.029,0.026,-0.03,-0.003,104.0,103.0,102.0,13.4,1505.2,327.4,-0.8,1.9,2470.566,13.28,0.039,139.1
2021-06-18T06:19:03,42.805,6.029,0.035,-0.026,-0.003,103.0,104.0,102.0,13.4,1505.2,326.9,-0.7,1.8,2470.527,13.28,0.043,126.6
2021-06-18T06:22:03,42.805,6.029,0.028,-0.029,0.001,103.0,104.0,102.0,13.3,1505.2,326.6,-0.7,1.8,2470.551,13.28,0.04,136.0
2021-06-18T06:25:03,42.805,6.029,0.043,-0.025,-0.002,103.0,104.0,101.0,13.4,1505.2,326.0,-0.7,1.8,2470.55,13.28,0.049,120.2
2021-06-18T06:28:03,42.805,6.029,0.04,-0.021,-0.004,104.0,103.0,102.0,13.4,1505.2,327.3,-0.8,1.8,2470.546,13.28,0.045,117.7
2021-06-18T06:31:03,42.805,6.029,0.037,-0.019,0.023,104.0,104.0,101.0,13.3,1505.2,328.4,-0.7,1.8,2470.522,13.28,0.041,117.2
2021-06-18T06:34:03,42.805,6.029,0.0,-0.054,-0.012,105.0,103.0,102.0,13.4,1505.2,327.5,-0.8,1.8,2470.537,13.28,0.053,180.0
2021-06-18T06:37:03,42.805,6.029,0.017,-0.019,0.018,104.0,103.0,102.0,13.4,1505.2,328.2,-0.8,1.9,2470.584,13.28,0.025,138.2
2021-06-18T06:40:03,42.805,6.029,0.048,-0.023,-0.004,103.0,104.0,102.0,13.4,1505.2,326.9,-0.8,1.8,2470.593,13.28,0.053,115.6
2021-06-18T06:43:03,42.805,6.029,0.038,-0.044,-0.005,105.0,104.0,102.0,13.3,1505.2,327.2,-0.8,1.8,2470.533,13.28,0.058,139.2
2021-06-18T06:46:03,42.805,6.029,0.03,-0.035,0.012,105.0,104.0,101.0,13.4,1505.2,327.9,-0.8,1.8,2470.539,13.28,0.046,139.4
2021-06-18T06:49:03,42.805,6.029,0.018,-0.012,-0.006,105.0,103.0,101.0,13.4,1505.2,326.0,-0.7,1.8,2470.582,13.28,0.021,123.7
2021-06-18T06:52:03,42.805,6.029,0.023,-0.02,0.0,104.0,103.0,102.0,13.4,1505.2,324.7,-0.8,1.8,2470.539,13.28,0.03,131.0
2021-06-18T06:55:03,42.805,6.029,0.036,-0.05,-0.01,104.0,105.0,102.0,13.3,1505.2,329.4,-0.8,1.8,2470.55,13.28,0.061,144.2
2021-06-18T06:58:03,42.805,6.029,0.023,-0.035,0.021,105.0,106.0,100.0,13.4,1505.2,327.7,-0.7,1.8,2470.548,13.28,0.041,146.7
2021-06-18T07:04:03,42.805,6.029,0.028,-0.029,-0.018,105.0,104.0,102.0,13.4,1505.2,326.9,-0.8,1.8,2470.547,13.28,0.04,136.0
2021-06-18T07:07:03,42.805,6.029,0.022,-0.022,-0.011,104.0,104.0,102.0,13.3,1505.2,326.7,-0.7,1.8,2470.554,13.28,0.031,135.0
2021-06-18T07:10:03,42.805,6.029,0.017,-0.048,-0.032,105.0,104.0,101.0,13.3,1505.2,329.1,-0.8,1.8,2470.521,13.28,0.05,160.5
2021-06-18T07:13:03,42.805,6.029,0.023,-0.024,0.002,105.0,104.0,101.0,13.3,1505.2,324.9,-0.8,1.8,2470.543,13.28,0.033,136.2
2021-06-18T07:16:03,42.805,6.029,0.025,-0.023,0.008,105.0,103.0,102.0,13.4,1505.2,327.5,-0.8,1.8,2470.524,13.28,0.033,132.6
2021-06-18T07:19:03,42.805,6.029,0.024,-0.032,-0.012,104.0,103.0,102.0,13.4,1505.2,329.7,-0.7,1.8,2470.593,13.28,0.04,143.1
2021-06-18T07:22:03,42.805,6.029,0.025,-0.04,-0.022,103.0,103.0,102.0,13.3,1505.2,325.2,-0.8,1.8,2470.538,13.28,0.047,148.0
2021-06-18T07:25:03,42.805,6.029,0.047,-0.017,-0.007,105.0,104.0,102.0,13.3,1505.2,325.0,-0.7,1.8,2470.524,13.28,0.049,109.9
2021-06-18T07:28:03,42.805,6.029,0.036,-0.039,0.0,103.0,104.0,101.0,13.4,1505.2,328.8,-0.7,1.8,2470.494,13.28,0.053,137.3
2021-06-18T07:31:03,42.805,6.029,0.02,-0.026,0.002,103.0,103.0,103.0,13.3,1505.2,327.0,-0.7,1.9,2470.518,13.28,0.032,142.4
2021-06-18T07:34:03,42.805,6.029,0.024,-0.013,-0.008,103.0,104.0,102.0,13.4,1505.2,328.5,-0.8,1.8,2470.513,13.28,0.027,118.4
2021-06-18T07:37:03,42.805,6.029,0.029,-0.022,0.041,104.0,103.0,102.0,13.4,1505.2,326.3,-0.7,1.8,2470.528,13.28,0.036,127.2
2021-06-18T07:40:03,42.805,6.029,0.001,-0.005,-0.025,104.0,104.0,101.0,13.4,1505.2,326.7,-0.7,1.8,2470.526,13.28,0.005,168.7
2021-06-18T07:43:03,42.805,6.029,0.03,-0.019,0.013,104.0,103.0,102.0,13.4,1505.2,324.5,-0.8,1.8,2470.49,13.28,0.035,122.3
2021-06-18T07:46:03,42.805,6.029,0.011,-0.039,0.019,103.0,104.0,101.0,13.3,1505.2,326.0,-0.7,1.8,2470.581,13.28,0.04,164.3
2021-06-18T07:49:03,42.805,6.029,0.015,-0.004,0.026,103.0,105.0,102.0,13.4,1505.2,325.2,-0.8,1.8,2470.52,13.28,0.015,104.9
2021-06-18T07:52:03,42.805,6.029,0.038,-0.055,-0.01,103.0,103.0,102.0,13.4,1505.2,326.4,-0.8,1.8,2470.523,13.28,0.066,145.4
2021-06-18T07:55:03,42.805,6.029,0.019,-0.031,-0.013,104.0,104.0,102.0,13.4,1505.2,327.0,-0.7,1.8,2470.505,13.28,0.036,148.5
2021-06-18T07:58:03,42.805,6.029,-0.002,-0.019,0.007,103.0,103.0,102.0,13.4,1505.2,326.3,-0.8,1.8,2470.518,13.28,0.019,186.0
2021-06-18T08:04:03,42.805,6.029,0.03,-0.039,0.004,104.0,103.0,102.0,13.4,1505.2,325.5,-0.8,1.8,2470.539,13.28,0.049,142.4
2021-06-18T08:07:03,42.805,6.029,0.019,-0.036,-0.035,104.0,102.0,103.0,13.4,1505.2,330.1,-0.7,1.8,2470.53,13.28,0.04,152.2
2021-06-18T08:10:03,42.805,6.029,0.031,-0.02,0.0,106.0,103.0,103.0,13.4,1505.2,326.5,-0.8,1.8,2470.523,13.28,0.036,122.8
2021-06-18T08:13:03,42.805,6.029,0.045,-0.019,-0.007,104.0,105.0,102.0,13.3,1505.2,329.7,-0.7,1.9,2470.518,13.28,0.048,112.9
2021-06-18T08:16:03,42.805,6.029,0.018,-0.031,-0.001,105.0,104.0,102.0,13.4,1505.2,326.3,-0.7,1.8,2470.526,13.28,0.035,149.9
2021-06-18T08:19:03,42.805,6.029,0.03,-0.027,-0.015,105.0,103.0,103.0,13.3,1505.2,324.9,-0.7,1.8,2470.543,13.28,0.04,132.0
2021-06-18T08:22:03,42.805,6.029,0.018,-0.027,0.015,103.0,104.0,103.0,13.3,1505.2,325.6,-0.8,1.8,2470.486,13.28,0.032,146.3
2021-06-18T08:25:03,42.805,6.029,0.026,-0.042,-0.012,104.0,103.0,102.0,13.4,1505.2,329.8,-0.8,1.8,2470.528,13.28,0.049,148.2
2021-06-18T08:28:03,42.805,6.029,0.047,-0.024,0.009,104.0,104.0,101.0,13.4,1505.2,328.4,-0.7,1.8,2470.501,13.28,0.052,117.0
2021-06-18T08:31:03,42.805,6.029,0.023,-0.027,0.007,104.0,104.0,102.0,13.4,1505.2,328.0,-0.8,1.9,2470.509,13.28,0.035,139.6
2021-06-18T08:34:03,42.805,6.029,0.046,-0.027,0.008,104.0,103.0,103.0,13.3,1505.2,327.8,-0.8,1.8,2470.504,13.28,0.053,120.4
2021-06-18T08:37:03,42.805,6.029,0.017,-0.04,0.016,104.0,104.0,102.0,13.4,1505.2,324.7,-0.8,1.8,2470.521,13.28,0.043,157.0
2021-06-18T08:40:03,42.805,6.029,0.023,-0.009,-0.01,103.0,104.0,101.0,13.4,1505.2,325.1,-0.7,1.8,2470.48,13.28,0.024,111.4
2021-06-18T08:43:03,42.805,6.029,0.029,-0.023,0.008,105.0,104.0,102.0,13.3,1505.2,327.2,-0.7,1.8,2470.527,13.28,0.037,128.4
2021-06-18T08:46:03,42.805,6.029,0.032,-0.03,0.006,104.0,103.0,102.0,13.4,1505.2,328.7,-0.7,1.8,2470.484,13.28,0.043,133.1
2021-06-18T08:49:03,42.805,6.029,0.037,-0.034,0.0,104.0,104.0,102.0,13.4,1505.2,329.1,-0.8,1.8,2470.496,13.28,0.05,132.6
2021-06-18T08:52:03,42.805,6.029,0.024,-0.016,0.0,105.0,103.0,102.0,13.4,1505.2,328.0,-0.7,1.8,2470.48,13.28,0.028,123.7
2021-06-18T08:55:03,42.805,6.029,0.028,-0.015,0.031,103.0,103.0,102.0,13.3,1505.2,325.8,-0.8,1.8,2470.535,13.28,0.031,118.2
2021-06-18T08:58:03,42.805,6.029,0.035,-0.023,0.024,104.0,104.0,102.0,13.3,1505.2,324.8,-0.7,1.8,2470.546,13.28,0.041,123.3
2021-06-18T09:04:03,42.805,6.029,0.047,-0.025,-0.009,105.0,104.0,101.0,13.4,1505.2,324.5,-0.8,1.8,2470.521,13.28,0.053,118.0
2021-06-18T09:07:03,42.805,6.029,0.046,-0.046,-0.014,104.0,104.0,102.0,13.4,1505.2,326.4,-0.8,1.8,2470.517,13.28,0.065,135.0
2021-06-18T09:10:03,42.805,6.029,0.035,-0.015,0.024,105.0,103.0,102.0,13.3,1505.2,330.2,-0.8,1.8,2470.569,13.28,0.038,113.2
2021-06-18T09:13:03,42.805,6.029,0.048,-0.033,0.031,105.0,103.0,102.0,13.3,1505.2,324.4,-0.8,1.8,2470.522,13.28,0.058,124.5
2021-06-18T09:16:03,42.805,6.029,0.029,-0.017,0.019,104.0,104.0,102.0,13.4,1505.2,325.2,-0.8,1.8,2470.513,13.28,0.033,120.4
2021-06-18T09:19:03,42.805,6.029,0.02,-0.029,0.01,105.0,104.0,102.0,13.4,1505.2,328.4,-0.8,1.8,2470.526,13.28,0.035,145.4
2021-06-18T09:22:03,42.805,6.029,0.016,-0.026,-0.028,105.0,103.0,102.0,13.4,1505.2,326.5,-0.8,1.8,2470.53,13.28,0.03,148.4
2021-06-18T09:25:03,42.805,6.029,0.035,-0.023,-0.017,104.0,103.0,103.0,13.3,1505.2,328.2,-0.8,1.8,2470.5,13.28,0.041,123.3
2021-06-18T09:28:03,42.805,6.029,0.032,-0.031,0.019,105.0,103.0,102.0,13.4,1505.2,328.2,-0.8,1.8,2470.535,13.28,0.044,134.1
2021-06-18T09:31:03,42.805,6.029,0.04,-0.025,-0.029,106.0,103.0,102.0,13.4,1505.2,329.9,-0.8,1.8,2470.502,13.28,0.047,122.0
2021-06-18T09:34:03,42.805,6.029,0.021,-0.049,0.002,105.0,103.0,102.0,13.4,1505.2,327.6,-0.7,1.8,2470.487,13.28,0.053,156.8
2021-06-18T09:37:03,42.805,6.029,0.039,-0.03,-0.004,104.0,104.0,102.0,13.3,1505.2,325.0,-0.8,1.8,2470.53,13.28,0.049,127.6
2021-06-18T09:40:03,42.805,6.029,0.035,-0.018,0.006,103.0,104.0,101.0,13.4,1505.2,325.4,-0.8,1.8,2470.516,13.28,0.039,117.2
2021-06-18T09:43:03,42.805,6.029,0.046,-0.048,-0.004,104.0,104.0,102.0,13.4,1505.2,329.5,-0.8,1.8,2470.545,13.28,0.066,136.2
2021-06-18T09:46:03,42.805,6.029,0.017,-0.036,0.026,103.0,103.0,102.0,13.4,1505.2,326.5,-0.8,1.8,2470.508,13.28,0.039,154.7
2021-06-18T09:49:03,42.805,6.029,0.036,-0.048,0.001,104.0,104.0,102.0,13.4,1505.2,328.7,-0.8,1.8,2470.528,13.28,0.06,143.1
2021-06-18T09:52:03,42.805,6.029,0.034,-0.02,-0.003,105.0,103.0,102.0,13.3,1505.2,328.7,-0.7,1.8,2470.519,13.28,0.039,120.5
2021-06-18T09:55:03,42.805,6.029,0.02,-0.044,-0.011,104.0,104.0,101.0,13.3,1505.2,329.9,-0.8,1.8,2470.517,13.28,0.048,155.6